Location: Baix
(44.7118°N, 4.7648°E)
Time: 15:53:17
(UTC+00:00)

Cosmos 2034 Rocket - Pass Details

Date: 07 August 2020
Orbit: 958 x 1000 km, 82.9° (Epoch: 23 September)

Event Time Altitude Azimuth Distance (km) Brightness Sun altitude
Exits shadow 00:35:49 77° 176° (S) 1,008 3.8 -27.9°
Maximum altitude 00:36:20 88° 98° (E) 986 3.9 -27.9°
Drops below altitude 10° 00:42:41 10° 9° (N) 2,755 7.3 -27.6°
Sets 00:45:13 0° 9° (N) 3,713 8.3 -27.5°
